FW7886 Weather Reports


Display with metric or nautical units.
time (UTC)temp
F
wind
direction
speed
MPH
gust
MPH
rain 1hr
in
rain 24hr
in
rain mn
in
humidity
%
barometer
mb
20260906061807 76 106 0.0 0.0 0.00 0.00 0.00 99 1011.7
20260906061301 76 106 0.0 0.0 0.00 0.00 0.00 99 1011.6
20260906060754 76 105 0.0 0.0 0.00 0.00 0.00 99 1011.6
20260906060250 76 106 0.0 0.0 0.00 0.00 0.00 99 1011.6
20260906055746 76 106 0.0 0.0 0.00 0.00 0.00 99 1011.6
20260906055246 76 107 0.0 0.0 0.00 0.00 0.00 99 1011.8
20260906054746 76 107 0.0 0.0 0.00 0.00 0.00 99 1011.9
20260906054506 76 107 0.0 0.0 0.00 0.00 0.00 99 1011.9
20260906053747 76 107 0.0 0.0 0.00 0.00 0.00 99 1011.9
20260906053515 76 107 0.0 0.0 0.00 0.00 0.00 99 1011.9
20260906052748 76 106 0.0 0.0 0.00 0.00 0.00 99 1012.0
20260906052248 76 107 0.0 0.0 0.00 0.00 0.00 99 1012.0
20260906051748 76 107 0.0 0.0 0.00 0.00 0.00 99 1011.9
20260906051519 76 107 0.0 0.0 0.00 0.00 0.00 99 1011.8
20260906050747 76 107 0.0 0.0 0.00 0.00 0.00 99 1011.8
20260906050247 76 107 0.0 1.0 0.00 0.00 0.00 98 1012.0
20260906050007 76 106 0.0 1.0 0.00 0.00 0.00 98 1011.9
20260906045245 76 106 0.0 1.0 0.00 0.00 0.00 98 1011.7
20260906044745 76 109 0.0 1.0 0.00 0.00 0.00 98 1011.6
20260906044239 77 125 0.0 1.0 0.00 0.00 0.00 98 1011.5
20260906043732 77 131 0.0 0.0 0.00 0.00 0.00 98 1011.5
20260906043448 77 131 0.0 0.0 0.00 0.00 0.00 98 1011.4
20260906042719 77 131 0.0 0.0 0.00 0.00 0.00 98 1011.4
20260906042213 77 131 0.0 0.0 0.00 0.00 0.00 98 1011.2
20260906041707 77 131 0.0 0.0 0.00 0.00 0.00 98 1011.2
20260906041200 77 131 0.0 0.0 0.00 0.00 0.00 98 1011.2
20260906041147 77 131 0.0 0.0 0.00 0.00 0.00 99 1011.0
20260906040149 76 131 0.0 0.0 0.00 0.00 0.00 98 1011.0
20260906035643 76 131 0.0 0.0 0.00 0.00 0.00 98 1011.0
20260906035137 76 131 0.0 0.0 0.00 0.00 0.00 98 1010.8
20260906034631 76 131 0.0 0.0 0.00 0.00 0.00 98 1011.0
20260906034126 76 131 0.0 0.0 0.00 0.00 0.00 98 1011.0
20260906033619 76 131 0.0 0.0 0.00 0.00 0.00 98 1011.1
20260906033113 76 131 0.0 0.0 0.00 0.00 0.00 97 1011.3
20260906032607 76 131 0.0 0.0 0.00 0.00 0.00 98 1011.3
20260906032101 77 131 0.0 0.0 0.00 0.00 0.00 98 1011.2
20260906031819 77 131 0.0 0.0 0.00 0.00 0.00 98 1011.3
20260906031049 76 131 0.0 0.0 0.00 0.00 0.00 98 1011.4
20260906030813 76 131 0.0 0.0 0.00 0.00 0.00 98 1011.3
20260906030046 76 131 0.0 0.0 0.00 0.00 0.00 97 1011.4
20260906025547 76 131 0.0 0.0 0.00 0.00 0.00 97 1011.4
20260906025047 76 131 0.0 0.0 0.00 0.00 0.00 97 1011.3
20260906024547 77 131 0.0 0.0 0.00 0.00 0.00 97 1011.3
20260906024048 77 131 0.0 0.0 0.00 0.00 0.00 97 1011.3
20260906023548 77 131 0.0 0.0 0.00 0.00 0.00 97 1011.4
20260906023046 77 131 0.0 0.0 0.00 0.00 0.00 97 1011.4
20260906022547 77 131 0.0 0.0 0.00 0.00 0.00 97 1011.2
20260906022045 77 131 0.0 0.0 0.00 0.00 0.00 97 1011.6
20260906021544 77 131 0.0 0.0 0.00 0.00 0.00 97 1011.6
20260906021046 77 131 0.0 0.0 0.00 0.00 0.00 96 1011.5
20260906020544 77 131 0.0 1.0 0.00 0.00 0.00 96 1011.5
20260906020040 77 131 0.0 1.0 0.00 0.00 0.00 96 1011.3
20260906015542 77 131 0.0 3.0 0.00 0.00 0.00 96 1011.4
20260906015042 77 131 0.0 3.0 0.00 0.00 0.00 97 1011.5
20260906014804 77 131 0.0 3.0 0.00 0.00 0.00 97 1011.4
20260906014040 77 131 0.0 3.0 0.00 0.00 0.00 97 1011.3
20260906013752 78 131 0.0 4.0 0.00 0.00 0.00 96 1011.2
20260906013245 78 131 0.0 4.0 0.00 0.00 0.00 96 1011.3
20260906012523 78 118 0.0 3.0 0.00 0.00 0.00 97 1011.1
20260906012016 78 119 0.0 3.0 0.00 0.00 0.00 96 1011.1
20260906011511 78 101 1.0 3.0 0.00 0.00 0.00 96 1011.3
20260906011004 78 110 0.0 3.0 0.00 0.00 0.00 96 1011.2
20260906010458 78 141 0.0 3.0 0.00 0.00 0.00 96 1011.2
20260906005948 78 143 0.0 3.0 0.00 0.00 0.00 96 1011.3
20260906005442 78 139 0.0 3.0 0.00 0.00 0.00 96 1011.2
20260906004936 78 139 0.0 4.0 0.00 0.00 0.00 96 1011.5
20260906004652 78 141 0.0 4.0 0.00 0.00 0.00 96 1011.4
20260906003925 78 131 0.0 4.0 0.00 0.00 0.00 96 1011.4
20260906003418 78 105 0.0 4.0 0.00 0.00 0.00 96 1011.5
20260906002912 79 120 0.0 4.0 0.00 0.00 0.00 95 1011.6
20260906002406 79 119 1.0 3.0 0.00 0.00 0.00 95 1011.7
20260906001900 79 105 1.0 4.0 0.00 0.00 0.00 94 1011.7
20260906001353 79 104 0.0 4.0 0.00 0.00 0.00 94 1011.8
20260906000847 79 118 0.0 3.0 0.00 0.00 0.00 94 1011.7
20260906000342 80 118 0.0 3.0 0.00 0.00 0.00 94 1011.5
20260905235836 80 118 0.0 1.0 0.00 0.00 0.00 93 1011.6
20260905235330 80 120 0.0 3.0 0.00 0.00 0.00 93 1011.5
20260905234824 80 111 1.0 4.0 0.00 0.00 0.00 93 1011.8
20260905234321 80 107 1.0 4.0 0.00 0.00 0.00 93 1011.8
20260905233818 80 125 1.0 4.0 0.00 0.00 0.00 92 1011.7
20260905233318 80 116 0.0 3.0 0.00 0.00 0.00 92 1011.9
20260905233040 81 149 0.0 3.0 0.00 0.00 0.00 92 1012.0
20260905232804 81 149 0.0 3.0 0.00 0.00 0.00 92 1012.2
20260905231816 81 117 0.0 1.0 0.00 0.00 0.00 92 1012.3
20260905231315 81 114 1.0 5.0 0.00 0.00 0.00 91 1012.6
20260905230815 81 113 1.0 5.0 0.00 0.00 0.00 91 1012.7
20260905230313 82 97 1.0 4.0 0.00 0.00 0.00 90 1012.5
20260905225810 82 141 0.0 3.0 0.00 0.00 0.00 90 1012.2
20260905225312 82 129 1.0 4.0 0.00 0.00 0.00 89 1012.1
20260905225031 82 125 3.0 8.0 0.00 0.00 0.00 89 1012.0
20260905224310 82 84 4.0 13.0 0.00 0.00 0.00 89 1011.8
20260905223810 83 86 4.0 13.0 0.00 0.00 0.00 88 1011.7
20260905223757 83 101 4.0 9.0 0.00 0.00 0.00 87 1012.1
20260905222808 83 91 5.0 13.0 0.00 0.00 0.00 87 1012.1
20260905222308 84 109 5.0 14.0 0.00 0.00 0.00 85 1012.0
20260905221809 85 105 4.0 14.0 0.00 0.00 0.00 83 1012.0
20260905221303 87 64 3.0 11.0 0.00 0.00 0.00 80 1011.9
20260905221022 87 64 3.0 8.0 0.00 0.00 0.00 79 1011.6
20260905220303 87 87 4.0 8.0 0.00 0.00 0.00 79 1011.5
20260905215800 87 85 4.0 10.0 0.00 0.00 0.00 79 1011.4
20260905215527 87 74 4.0 10.0 0.00 0.00 0.00 79 1011.4
20260905214801 87 306 4.0 6.0 0.00 0.00 0.00 80 1011.6
20260905214502 87 9 4.0 8.0 0.00 0.00 0.00 81 1011.4
20260905214350 87 349 4.0 8.0 0.00 0.00 0.00 80 1011.5
20260905213518 87 268 4.0 6.0 0.00 0.00 0.00 82 1011.4
20260905212759 87 264 5.0 9.0 0.00 0.00 0.00 80 1011.4
20260905212258 87 7 5.0 9.0 0.00 0.00 0.00 81 1011.2
20260905211758 87 238 5.0 9.0 0.00 0.00 0.00 80 1011.1
20260905211258 88 28 5.0 10.0 0.00 0.00 0.00 78 1011.1
20260905210759 88 53 6.0 11.0 0.00 0.00 0.00 78 1010.9
20260905210521 88 312 5.0 11.0 0.00 0.00 0.00 78 1010.8
20260905205752 88 338 4.0 9.0 0.00 0.00 0.00 79 1011.0
20260905205251 88 280 4.0 8.0 0.00 0.00 0.00 79 1011.1
20260905204752 88 94 5.0 10.0 0.00 0.00 0.00 79 1011.1
20260905204513 88 315 5.0 10.0 0.00 0.00 0.00 79 1011.2
20260905203753 88 305 5.0 10.0 0.00 0.00 0.00 78 1011.1
20260905203516 88 315 4.0 10.0 0.00 0.00 0.00 77 1011.1
20260905202751 88 272 4.0 8.0 0.00 0.00 0.00 78 1011.2
20260905202255 88 263 4.0 9.0 0.00 0.00 0.00 77 1011.3
20260905201754 88 322 4.0 9.0 0.00 0.00 0.00 78 1011.3
20260905201255 88 310 4.0 9.0 0.00 0.00 0.00 81 1011.2
20260905200756 88 291 4.0 9.0 0.00 0.00 0.00 80 1011.2
20260905200256 89 305 4.0 10.0 0.00 0.00 0.00 79 1011.2
20260905195752 89 284 4.0 10.0 0.00 0.00 0.00 79 1011.1
20260905195735 89 280 4.0 9.0 0.00 0.00 0.00 77 1011.2
20260905194752 89 226 4.0 9.0 0.00 0.00 0.00 77 1011.2
20260905194252 89 319 5.0 10.0 0.00 0.00 0.00 76 1011.2
20260905194016 89 334 5.0 10.0 0.00 0.00 0.00 76 1011.3
20260905193253 90 323 4.0 10.0 0.00 0.00 0.00 75 1011.3
20260905192748 91 295 3.0 8.0 0.00 0.00 0.00 73 1011.3
20260905192248 92 302 1.0 8.0 0.00 0.00 0.00 71 1011.3
20260905191747 91 243 1.0 6.0 0.00 0.00 0.00 70 1011.4
20260905191507 92 281 1.0 5.0 0.00 0.00 0.00 70 1011.6
20260905190745 92 152 1.0 5.0 0.00 0.00 0.00 68 1011.9
20260905190244 92 314 1.0 5.0 0.00 0.00 0.00 67 1011.9
20260905185745 93 150 1.0 5.0 0.00 0.00 0.00 67 1012.0
20260905185242 93 189 1.0 5.0 0.00 0.00 0.00 67 1011.9
20260905185000 92 186 0.0 4.0 0.00 0.00 0.00 69 1011.9
20260905184241 91 135 0.0 3.0 0.00 0.00 0.00 72 1012.1
20260905183741 91 137 0.0 3.0 0.00 0.00 0.00 70 1012.3
20260905183239 91 113 0.0 3.0 0.00 0.00 0.00 71 1012.3
20260905182744 92 104 0.0 3.0 0.00 0.00 0.00 70 1012.3
20260905182239 92 161 1.0 4.0 0.00 0.00 0.00 71 1012.3
20260905181740 91 159 3.0 6.0 0.00 0.00 0.00 73 1012.3
20260905181240 91 287 1.0 6.0 0.00 0.00 0.00 72 1012.4
20260905180734 91 300 1.0 4.0 0.00 0.00 0.00 73 1012.4
20260905180453 91 260 1.0 4.0 0.00 0.00 0.00 73 1012.6
20260905175722 91 187 1.0 4.0 0.00 0.00 0.00 72 1012.7
20260905175216 91 343 1.0 8.0 0.00 0.00 0.00 72 1012.7
20260905174710 90 154 1.0 8.0 0.00 0.00 0.00 74 1012.7
20260905174204 91 285 1.0 5.0 0.00 0.00 0.00 72 1012.8
20260905174151 91 204 1.0 4.0 0.00 0.00 0.00 73 1013.0
20260905173152 90 172 0.0 4.0 0.00 0.00 0.00 77 1013.0
20260905172907 90 159 0.0 1.0 0.00 0.00 0.00 73 1013.1
20260905172140 90 159 0.0 3.0 0.00 0.00 0.00 74 1013.1
20260905171634 90 159 0.0 3.0 0.00 0.00 0.00 75 1013.2
20260905171128 91 156 0.0 4.0 0.00 0.00 0.00 75 1013.4
20260905170621 91 156 0.0 4.0 0.00 0.00 0.00 74 1013.3
20260905170114 91 140 0.0 4.0 0.00 0.00 0.00 74 1013.3
20260905165608 92 171 1.0 4.0 0.00 0.00 0.00 74 1013.2
20260905165102 91 175 1.0 4.0 0.00 0.00 0.00 79 1013.3
20260905164556 90 133 0.0 4.0 0.00 0.00 0.00 78 1013.3
20260905164319 89 113 0.0 3.0 0.00 0.00 0.00 78 1013.5
20260905163544 89 132 0.0 4.0 0.00 0.00 0.00 79 1013.6
20260905163041 89 134 0.0 4.0 0.00 0.00 0.00 78 1013.4
20260905162541 90 100 1.0 4.0 0.00 0.00 0.00 79 1013.4
20260905162041 90 126 1.0 4.0 0.00 0.00 0.00 76 1013.5
20260905161800 91 154 1.0 8.0 0.00 0.00 0.00 76 1013.4
20260905161040 91 150 1.0 10.0 0.00 0.00 0.00 78 1013.4
20260905160539 90 125 1.0 10.0 0.00 0.00 0.00 78 1013.4
20260905160259 90 108 1.0 5.0 0.00 0.00 0.00 78 1013.6
20260905155541 90 119 1.0 6.0 0.00 0.00 0.00 79 1013.6
20260905155041 89 121 1.0 8.0 0.00 0.00 0.00 80 1013.6
20260905154536 90 111 1.0 8.0 0.00 0.00 0.00 78 1013.5
20260905154039 89 124 1.0 5.0 0.00 0.00 0.00 80 1013.4
20260905153537 89 136 1.0 6.0 0.00 0.00 0.00 80 1013.4
20260905153036 88 104 1.0 6.0 0.00 0.00 0.00 82 1013.5
20260905152533 87 158 3.0 5.0 0.00 0.00 0.00 83 1013.5
20260905152032 87 99 1.0 5.0 0.00 0.00 0.00 81 1013.6
20260905151531 87 105 1.0 5.0 0.00 0.00 0.00 82 1013.5
20260905151031 87 155 1.0 4.0 0.00 0.00 0.00 83 1013.5
20260905150530 87 129 1.0 4.0 0.00 0.00 0.00 83 1013.5
20260905150030 86 122 1.0 4.0 0.00 0.00 0.00 84 1013.4
20260905145522 86 126 1.0 4.0 0.00 0.00 0.00 83 1013.4
20260905145016 86 161 1.0 4.0 0.00 0.00 0.00 83 1013.4
20260905144510 86 154 0.0 4.0 0.00 0.00 0.00 87 1013.3
20260905144004 86 130 0.0 4.0 0.00 0.00 0.00 86 1013.2
20260905143458 85 109 0.0 4.0 0.00 0.00 0.00 86 1013.3
20260905142952 85 128 0.0 1.0 0.00 0.00 0.00 89 1013.4
20260905142446 84 119 0.0 4.0 0.00 0.00 0.00 87 1013.4
20260905141940 85 127 1.0 4.0 0.00 0.00 0.00 86 1013.3
20260905141434 85 166 0.0 6.0 0.00 0.00 0.00 86 1013.3
20260905141151 85 148 1.0 6.0 0.00 0.00 0.00 84 1013.3
20260905140430 86 135 1.0 5.0 0.00 0.00 0.00 85 1013.2
20260905135930 87 168 1.0 5.0 0.00 0.00 0.00 81 1013.3
20260905135429 86 144 0.0 4.0 0.00 0.00 0.00 83 1013.4
20260905134929 86 128 0.0 4.0 0.00 0.00 0.00 87 1013.4
20260905134428 85 136 0.0 5.0 0.00 0.00 0.00 89 1013.4
20260905133931 85 143 0.0 5.0 0.00 0.00 0.00 88 1013.3
20260905133427 84 138 0.0 3.0 0.00 0.00 0.00 92 1013.3
20260905132928 83 139 0.0 3.0 0.00 0.00 0.00 92 1013.3
20260905132427 82 139 0.0 1.0 0.00 0.00 0.00 94 1013.3
20260905131928 81 139 0.0 1.0 0.00 0.00 0.00 95 1013.2
20260905131428 81 139 0.0 0.0 0.00 0.00 0.00 96 1013.2
20260905131145 80 139 0.0 0.0 0.00 0.00 0.00 97 1013.2
20260905130423 80 139 0.0 0.0 0.00 0.00 0.00 97 1013.4
20260905125925 80 139 0.0 0.0 0.00 0.00 0.00 97 1013.3
20260905125424 79 139 0.0 0.0 0.00 0.00 0.00 97 1013.4
20260905124921 79 139 0.0 0.0 0.00 0.00 0.00 97 1013.5
20260905124422 79 139 0.0 0.0 0.00 0.00 0.00 98 1013.4
20260905123917 79 139 0.0 0.0 0.00 0.00 0.00 98 1013.4
20260905123417 78 139 0.0 0.0 0.00 0.00 0.00 98 1013.4
20260905122919 78 139 0.0 0.0 0.00 0.00 0.00 98 1013.5
20260905122416 78 139 0.0 0.0 0.00 0.00 0.00 99 1013.5
20260905121913 78 139 0.0 0.0 0.00 0.00 0.00 99 1013.5
20260905121413 78 139 0.0 0.0 0.00 0.00 0.00 99 1013.3
20260905120912 78 139 0.0 0.0 0.00 0.00 0.00 99 1013.4
20260905120410 78 139 0.0 0.0 0.00 0.00 0.00 99 1013.4
20260905115908 78 139 0.0 0.0 0.00 0.00 0.00 99 1013.3
20260905115405 78 139 0.0 0.0 0.00 0.00 0.00 99 1013.2
20260905114903 77 139 0.0 0.0 0.00 0.00 0.00 99 1013.1
20260905114402 78 139 0.0 0.0 0.00 0.00 0.00 99 1013.0
20260905113902 78 139 0.0 0.0 0.00 0.00 0.00 99 1012.9
20260905113400 78 139 0.0 0.0 0.00 0.00 0.00 99 1012.9
20260905112858 78 139 0.0 0.0 0.00 0.00 0.00 99 1012.8
20260905112356 78 139 0.0 0.0 0.00 0.00 0.00 99 1012.7
20260905111856 78 139 0.0 0.0 0.00 0.00 0.00 100 1012.6
20260905111352 77 139 0.0 0.0 0.00 0.00 0.00 100 1012.6
20260905110852 77 139 0.0 0.0 0.00 0.00 0.00 99 1012.5
20260905110353 77 139 0.0 0.0 0.00 0.00 0.00 99 1012.5
20260905105852 77 139 0.0 0.0 0.00 0.00 0.00 99 1012.5
20260905105619 77 139 0.0 0.0 0.00 0.00 0.00 99 1012.3
20260905104852 77 139 0.0 0.0 0.00 0.00 0.00 99 1012.4
20260905104608 77 139 0.0 0.0 0.00 0.00 0.00 99 1012.3
20260905104119 77 139 0.0 0.0 0.00 0.00 0.00 99 1012.3
20260905103610 77 139 0.0 0.0 0.00 0.00 0.00 99 1012.3
20260905102852 77 139 0.0 0.0 0.00 0.00 0.00 99 1012.4
20260905102351 77 139 0.0 0.0 0.00 0.00 0.00 99 1012.2
20260905101851 77 139 0.0 0.0 0.00 0.00 0.00 99 1012.2
20260905101619 77 139 0.0 0.0 0.00 0.00 0.00 98 1012.2
20260905100851 78 139 0.0 0.0 0.00 0.00 0.00 98 1012.3
20260905100351 78 139 0.0 0.0 0.00 0.00 0.00 98 1012.4
20260905095854 78 139 0.0 0.0 0.00 0.00 0.00 99 1012.3
20260905095354 78 139 0.0 0.0 0.00 0.00 0.00 99 1012.3
20260905094852 78 139 0.0 0.0 0.00 0.00 0.00 99 1012.3
20260905094343 78 139 0.0 0.0 0.00 0.00 0.00 98 1012.2
20260905094054 78 139 0.0 0.0 0.00 0.00 0.00 99 1012.3
20260905093558 78 139 0.0 0.0 0.00 0.00 0.00 99 1012.2
20260905092828 78 139 0.0 0.0 0.00 0.00 0.00 99 1012.2
20260905092322 78 139 0.0 0.0 0.00 0.00 0.00 99 1012.1
20260905091816 78 139 0.0 0.0 0.00 0.00 0.00 99 1012.2
20260905091529 78 139 0.0 0.0 0.00 0.00 0.00 99 1012.2
20260905090800 77 139 0.0 0.0 0.00 0.00 0.00 99 1012.3
20260905090254 77 139 0.0 0.0 0.00 0.00 0.00 98 1012.2
20260905085748 77 139 0.0 0.0 0.00 0.00 0.00 98 1012.2
20260905085242 77 139 0.0 0.0 0.00 0.00 0.00 98 1012.4
20260905084737 78 139 0.0 0.0 0.00 0.00 0.00 98 1012.3
20260905084230 78 139 0.0 0.0 0.00 0.00 0.00 98 1012.3
20260905083724 78 139 0.0 0.0 0.00 0.00 0.00 98 1012.4
20260905083217 78 139 0.0 0.0 0.00 0.00 0.00 98 1012.4
20260905082712 78 139 0.0 0.0 0.00 0.00 0.00 98 1012.3
20260905082429 78 139 0.0 0.0 0.00 0.00 0.00 98 1012.2
20260905082147 78 139 0.0 0.0 0.00 0.00 0.00 98 1012.2
20260905081154 78 139 0.0 0.0 0.00 0.00 0.00 98 1012.3
20260905080648 78 139 0.0 0.0 0.00 0.00 0.00 98 1012.3
20260905080142 78 139 0.0 0.0 0.00 0.00 0.00 98 1012.1
20260905075858 78 139 0.0 0.0 0.00 0.00 0.00 97 1012.3
20260905075129 78 139 0.0 0.0 0.00 0.00 0.00 97 1012.1
20260905074624 78 139 0.0 0.0 0.00 0.00 0.00 97 1012.2
20260905074339 78 139 0.0 0.0 0.00 0.00 0.00 97 1012.2
20260905073611 79 139 0.0 0.0 0.00 0.00 0.00 97 1012.2
20260905073106 79 139 0.0 0.0 0.00 0.00 0.00 97 1012.3
20260905072600 79 139 0.0 0.0 0.00 0.00 0.00 98 1012.3
20260905072054 78 139 0.0 0.0 0.00 0.00 0.00 97 1012.3
20260905071549 78 139 0.0 0.0 0.00 0.00 0.00 97 1012.3
20260905071042 78 139 0.0 0.0 0.00 0.00 0.00 97 1012.2
20260905070535 78 139 0.0 0.0 0.00 0.00 0.00 97 1012.2
20260905070029 79 139 0.0 0.0 0.00 0.00 0.00 96 1012.2
20260905065525 79 139 0.0 0.0 0.00 0.00 0.00 96 1012.2
20260905065018 79 139 0.0 0.0 0.00 0.00 0.00 97 1012.3
20260905064512 79 139 0.0 0.0 0.00 0.00 0.00 97 1012.3
20260905064006 79 139 0.0 0.0 0.00 0.00 0.00 97 1012.5
20260905063723 79 139 0.0 0.0 0.00 0.00 0.00 97 1012.3
20260905063444 79 139 0.0 0.0 0.00 0.00 0.00 96 1012.3
20260905062448 79 140 0.0 0.0 0.00 0.00 0.00 96 1012.1
20260905062200 79 140 0.0 0.0 0.00 0.00 0.00 95 1012.1